Location: Burgberg
(50.1428°N, 11.0671°E)
Time: 10:43:24
(UTC+00:00)

Cosmos 2322 Rocket - Pass Details

Date: 26 January 2020
Orbit: 831 x 852 km, 71.0° (Epoch: 16 February)

Event Time Altitude Azimuth Distance (km) Brightness Sun altitude
Rises 04:05:32 0° 180° (S) 3,386 5.3 -27.5°
Reaches altitude 10° 04:08:08 10° 172° (S) 2,460 4.7 -27.1°
Maximum altitude 04:13:14 36° 107° (ESE) 1,311 3.6 -26.3°
Drops below altitude 10° 04:18:24 10° 42° (NE) 2,487 5.2 -25.4°
Sets 04:21:01 0° 35° (NE) 3,429 5.8 -25.0°
